DELTA 1 DEB, 18645

Orbit data source: Space-Track

DELTA 1 DEB, 18645 is space debris in SSO originally from a launch on Tue, 06 Nov 1973 UTC launched from the Air Force Western Test Range (AFWTR). Debris objects in space refer to the collection of defunct objects orbiting the Earth. Examples of debris include non-operational satellites, rocket bodies, and fragments generated from explosions, collisions, or faulty payload assembly.

Loading next visibility...
Identifier
18645, 1973-086GX
Orbit
SSO
Country
Flag of USUS
Related business
Manufacturer
Unknown
Mission
Spacecraft
Bus & Motor
Unknown
Mass
Unknown
Launch date (UTC)
1973-11-06 (53 years ago)
Launch vehicle
Unknown
Launch site
Air Force Western Test Range (AFWTR)
Object type
Payload
Rocket body
Debris
Shape & HBR
Unknown shape, 1.1 m
Radar Cross Section
Medium (>0.1 m² and <1 m²)

Expand to show TLE details & history
Last TLE update: 2 days ago

TLE from 2 days ago
0 DELTA 1 DEB
1 18645U 73086GX  26205.88321146 -.00000103  00000-0 -43159-3 0  9997
2 18645 102.3143 337.8058 0118055  12.1276 139.7125 12.37428754868624
Epoch: 2026-07-24T21:11Z
TLE epoch observation values (Epoch: 2026-07-24T21:11:49.470Z)
Latitude
26.65204°
Longitude
-96.49417°
Altitude
1,592.005 km
Speed
7.043 km/s
True Right ascension
10h 56m 15s
True Declination
26° 31' 44"
Sunlit
Object was in daylight at epoch
Visualization orbit readout
Latitude
Unknown
Longitude
Unknown
Altitude
Unknown
Speed
Unknown
Apparent Right ascension
Unknown
Apparent Declination
Unknown
Sunlit
N/A
Visualization observer readout
Local Sidereal Time
23:18:19
Azimuth
Unknown
Elevation
Unknown
Doppler factor
Unknown
Orbital elements
Apogee altitude
1,608.302 km
Perigee altitude
1,421.934 km
Semi-major axis
7,893.255 km
Eccentricity
0.01181
Inclination
102.3143°
RAAN
337.8058°
Arg. of periapsis
12.1276°
True anomaly
140.57748°
Mean anomaly
139.7125°
Eccentric anomaly
140.14596°
Mean motion
3.09499 °/min
Orbital period
116.32 mins
BSTAR
-0.00043159
Loading maneuver chart data...
Computing Atmospheric mass density...
Loading historical data...
Loading historical data...
Loading historical data...
Loading historical data...
Loading historical data...
Loading historical data...
Loading historical data...

Documentation

Showing up to 5 results
|